When you browse on this site, cookies collect data to enhance your experience and personalize the content and advertising you see.
Visit our Privacy Policy to learn more. By continuing to use the site, you agree to this use of cookies and data.
  • In Hungary
  • List of Countries
  • For 7 days
  • Water Temperature
  • Satellite Maps
  • Weather Map
  • News
  • Weather Widgets
  • user-avatar
    Login

    Hourly Weather Chakhansur

    Today, 22 April, Monday

    Time Temperature Precipitation Wind Pressure Humidity
    00:00 +28°C° 0 mm 7 mps 713 mmHg 33%
    01:00 +26°C° 0 mm 7 mps 713 mmHg 38%
    02:00 +24°C° 0 mm 7 mps 713 mmHg 39%
    03:00 +23°C° 0 mm 6 mps 713 mmHg 41%
    04:00 +22°C° 0 mm 6 mps 713 mmHg 42%
    05:00 +22°C° 0 mm 5 mps 714 mmHg 42%
    06:00 +22°C° 0 mm 5 mps 714 mmHg 41%
    07:00 +22°C° 0 mm 5 mps 714 mmHg 41%
    08:00 +23°C° 0 mm 4 mps 715 mmHg 37%
    09:00 +26°C° 0 mm 3 mps 715 mmHg 32%
    10:00 +28°C° 0 mm 2 mps 715 mmHg 28%
    11:00 +30°C° 0 mm 2 mps 715 mmHg 25%
    12:00 +31°C° 0 mm 2 mps 715 mmHg 22%
    13:00 +33°C° 0 mm 1 mps 714 mmHg 19%
    14:00 +34°C° 0 mm 1 mps 714 mmHg 18%
    15:00 +35°C° 0 mm 1 mps 714 mmHg 17%
    16:00 +36°C° 0 mm 1 mps 713 mmHg 16%
    17:00 +36°C° 0 mm 1 mps 713 mmHg 17%
    18:00 +36°C° 0 mm 2 mps 713 mmHg 17%
    19:00 +36°C° 0 mm 2 mps 714 mmHg 18%
    20:00 +36°C° 0.1 mm 2 mps 714 mmHg 20%
    21:00 +35°C° 0.1 mm 2 mps 714 mmHg 23%
    22:00 +34°C° 0.1 mm 2 mps 715 mmHg 25%
    23:00 +34°C° 0 mm 2 mps 714 mmHg 26%

    Tomorrow, 23 April, Tuesday

    Time Temperature Precipitation Wind Pressure Humidity
    00:00 +32°C° 0 mm 2 mps 714 mmHg 28%
    01:00 +31°C° 0 mm 2 mps 714 mmHg 29%
    02:00 +31°C° 0 mm 2 mps 714 mmHg 30%
    03:00 +31°C° 0 mm 2 mps 714 mmHg 30%
    04:00 +30°C° 0 mm 2 mps 714 mmHg 30%
    05:00 +31°C° 0.1 mm 3 mps 714 mmHg 29%
    06:00 +31°C° 0.1 mm 3 mps 714 mmHg 29%
    07:00 +31°C° 0.1 mm 3 mps 715 mmHg 28%
    08:00 +34°C° 0.1 mm 4 mps 715 mmHg 25%
    09:00 +35°C° 0.1 mm 4 mps 715 mmHg 22%
    10:00 +37°C° 0.1 mm 5 mps 716 mmHg 19%
    11:00 +38°C° 0 mm 6 mps 715 mmHg 18%
    12:00 +39°C° 0 mm 8 mps 715 mmHg 17%
    13:00 +40°C° 0 mm 9 mps 715 mmHg 16%
    14:00 +40°C° 0 mm 9 mps 714 mmHg 15%
    15:00 +40°C° 0 mm 8 mps 714 mmHg 14%
    16:00 +40°C° 0 mm 8 mps 713 mmHg 14%
    17:00 +38°C° 0.6 mm 8 mps 713 mmHg 21%
    18:00 +34°C° 0.6 mm 9 mps 713 mmHg 28%
    19:00 +32°C° 0.6 mm 9 mps 713 mmHg 35%
    20:00 +32°C° 0.3 mm 7 mps 713 mmHg 36%
    21:00 +30°C° 0.3 mm 6 mps 713 mmHg 37%
    22:00 +30°C° 0.3 mm 5 mps 714 mmHg 39%
    23:00 +30°C° 0 mm 5 mps 713 mmHg 39%

    Day after tomorrow, 24 April, Wednesday

    Time Temperature Precipitation Wind Pressure Humidity
    00:00 +29°C° 0 mm 5 mps 713 mmHg 39%
    01:00 +29°C° 0 mm 5 mps 713 mmHg 39%
    02:00 +27°C° 0 mm 7 mps 712 mmHg 42%
    03:00 +24°C° 0 mm 9 mps 712 mmHg 44%
    04:00 +21°C° 0 mm 10 mps 712 mmHg 47%
    05:00 +21°C° 0 mm 10 mps 713 mmHg 47%
    06:00 +19°C° 0 mm 11 mps 714 mmHg 47%
    07:00 +19°C° 0 mm 11 mps 714 mmHg 47%
    08:00 +21°C° 0 mm 11 mps 715 mmHg 43%
    09:00 +23°C° 0 mm 11 mps 716 mmHg 39%
    10:00 +24°C° 0 mm 12 mps 717 mmHg 35%
    11:00 +26°C° 0 mm 12 mps 717 mmHg 32%
    12:00 +27°C° 0 mm 12 mps 717 mmHg 29%
    13:00 +27°C° 0 mm 12 mps 717 mmHg 26%
    14:00 +27°C° 0 mm 12 mps 717 mmHg 25%
    15:00 +27°C° 0 mm 11 mps 717 mmHg 24%
    16:00 +27°C° 0 mm 10 mps 717 mmHg 23%
    17:00 +26°C° 0 mm 10 mps 717 mmHg 24%
    18:00 +24°C° 0 mm 10 mps 717 mmHg 25%
    19:00 +23°C° 0 mm 10 mps 718 mmHg 26%
    20:00 +22°C° 0 mm 11 mps 718 mmHg 27%
    21:00 +21°C° 0 mm 11 mps 719 mmHg 27%
    22:00 +19°C° 0 mm 11 mps 719 mmHg 28%
    23:00 +18°C° 0 mm 11 mps 719 mmHg 29%

    25 April, Thursday

    Time Temperature Precipitation Wind Pressure Humidity
    00:00 +17°C° 0 mm 12 mps 719 mmHg 30%
    01:00 +15°C° 0 mm 12 mps 719 mmHg 31%
    02:00 +16°C° 0 mm 11 mps 719 mmHg 32%
    03:00 +14°C° 0 mm 11 mps 719 mmHg 34%
    04:00 +14°C° 0 mm 11 mps 719 mmHg 36%
    05:00 +14°C° 0 mm 11 mps 720 mmHg 36%
    06:00 +14°C° 0 mm 10 mps 720 mmHg 36%
    07:00 +14°C° 0 mm 10 mps 720 mmHg 36%
    08:00 +16°C° 0 mm 10 mps 721 mmHg 32%
    09:00 +18°C° 0 mm 10 mps 721 mmHg 29%
    10:00 +19°C° 0 mm 9 mps 721 mmHg 25%
    11:00 +22°C° 0 mm 9 mps 721 mmHg 22%
    12:00 +23°C° 0 mm 8 mps 721 mmHg 19%
    13:00 +26°C° 0 mm 8 mps 720 mmHg 16%
    14:00 +26°C° 0 mm 8 mps 720 mmHg 15%
    15:00 +26°C° 0 mm 7 mps 719 mmHg 14%
    16:00 +27°C° 0 mm 7 mps 719 mmHg 13%
    17:00 +26°C° 0 mm 6 mps 719 mmHg 14%
    18:00 +24°C° 0 mm 6 mps 719 mmHg 16%
    19:00 +25°C° 0 mm 5 mps 719 mmHg 17%
    20:00 +23°C° 0 mm 6 mps 719 mmHg 19%
    21:00 +22°C° 0 mm 6 mps 719 mmHg 21%
    22:00 +21°C° 0 mm 7 mps 720 mmHg 23%
    23:00 +20°C° 0 mm 7 mps 719 mmHg 26%

    26 April, Friday

    Time Temperature Precipitation Wind Pressure Humidity
    00:00 +20°C° 0 mm 8 mps 719 mmHg 28%
    01:00 +18°C° 0 mm 8 mps 719 mmHg 31%
    02:00 +17°C° 0 mm 8 mps 719 mmHg 31%
    03:00 +17°C° 0 mm 8 mps 719 mmHg 31%
    04:00 +16°C° 0 mm 8 mps 719 mmHg 32%
    05:00 +17°C° 0 mm 9 mps 720 mmHg 31%
    06:00 +17°C° 0 mm 9 mps 720 mmHg 30%
    07:00 +17°C° 0 mm 9 mps 721 mmHg 30%
    08:00 +19°C° 0 mm 9 mps 721 mmHg 26%
    09:00 +21°C° 0 mm 9 mps 721 mmHg 21%
    10:00 +23°C° 0 mm 9 mps 722 mmHg 17%
    11:00 +24°C° 0 mm 9 mps 721 mmHg 16%
    12:00 +26°C° 0 mm 9 mps 721 mmHg 14%
    13:00 +27°C° 0 mm 8 mps 720 mmHg 13%
    14:00 +27°C° 0 mm 8 mps 720 mmHg 12%
    15:00 +28°C° 0 mm 8 mps 720 mmHg 12%
    16:00 +28°C° 0 mm 8 mps 720 mmHg 11%
    17:00 +27°C° 0 mm 8 mps 720 mmHg 12%
    18:00 +26°C° 0 mm 7 mps 720 mmHg 13%
    19:00 +24°C° 0 mm 7 mps 720 mmHg 14%
    20:00 +23°C° 0 mm 7 mps 720 mmHg 16%
    21:00 +23°C° 0 mm 6 mps 720 mmHg 18%
    22:00 +22°C° 0 mm 6 mps 721 mmHg 20%
    23:00 +21°C° 0 mm 7 mps 720 mmHg 22%

    27 April, Saturday

    Time Temperature Precipitation Wind Pressure Humidity
    00:00 +20°C° 0 mm 7 mps 720 mmHg 24%
    01:00 +20°C° 0 mm 8 mps 720 mmHg 27%
    02:00 +18°C° 0 mm 8 mps 720 mmHg 28%
    03:00 +17°C° 0 mm 8 mps 720 mmHg 29%
    04:00 +17°C° 0 mm 8 mps 720 mmHg 31%
    05:00 +17°C° 0 mm 8 mps 720 mmHg 30%
    06:00 +17°C° 0 mm 8 mps 721 mmHg 30%
    07:00 +17°C° 0 mm 9 mps 721 mmHg 29%
    08:00 +19°C° 0 mm 9 mps 721 mmHg 25%
    09:00 +21°C° 0 mm 9 mps 722 mmHg 21%
    10:00 +23°C° 0 mm 9 mps 722 mmHg 17%
    11:00 +24°C° 0 mm 8 mps 722 mmHg 15%
    12:00 +27°C° 0 mm 8 mps 721 mmHg 13%
    13:00 +28°C° 0 mm 8 mps 721 mmHg 12%
    14:00 +28°C° 0 mm 8 mps 720 mmHg 12%
    15:00 +28°C° 0 mm 8 mps 720 mmHg 11%
    16:00 +28°C° 0 mm 8 mps 720 mmHg 11%
    17:00 +27°C° 0 mm 7 mps 720 mmHg 12%
    18:00 +27°C° 0 mm 6 mps 720 mmHg 13%
    19:00 +26°C° 0 mm 5 mps 720 mmHg 14%
    20:00 +25°C° 0 mm 5 mps 720 mmHg 15%
    21:00 +23°C° 0 mm 6 mps 720 mmHg 17%
    22:00 +23°C° 0 mm 6 mps 721 mmHg 18%
    23:00 +22°C° 0 mm 6 mps 720 mmHg 21%
    Show more